Zurück zum Katalog

STARLINK-36236

AktivKommunikationVLEO
NORAD 67078·PAYLOAD·🇺🇸 United States

Gestartet Dec 14, 2025 von Vandenberg Space Force Base

Loading…

Nächste Überflüge (nächste 24 Stunden)

TLE

AktuellSource: CelesTrak SupGP

Epoche: Sep 14, 2026, 21:14 UTC

1 67078C 25298D   26257.88520833  .00073044  00000+0  61217-2 0  2576
2 67078  69.9997 257.5525 0003823 265.5051 103.1997 14.98289481    15

Verfolge STARLINK-36236 in Echtzeit mit AllMySat

Download on the App Store